Wind_Speed
41 41 42 41 44 49 51 53 57 59 61 64 68 71 71 71 72 76 78 77 75 71 59 49 49 45 36 33 35 32 29 28 25 22 20 18 18 18 19 21 24 25 26 26 26 26 26 25 23 22 20 20 20 21 22 22 22 22 21 21 21 21 20 18 17 18 19 21 26 29 32 32 33 35 37 39 39 36 34 35 35 36 35 34 33 32 31
42 42 42 41 43 45 46 50 53 55 56 58 63 67 68 68 71 75 76 74 71 69 64 58 57 54 44 35 33 33 33 30 26 23 22 21 21 20 20 23 26 27 28 28 27 26 26 24 24 23 21 21 22 23 25 25 25 24 23 23 22 22 22 20 20 22 24 27 30 31 33 34 34 34 33 34 33 32 33 35 35 36 37 38 38 35 33
42 42 41 41 43 43 44 47 50 52 53 55 58 61 64 66 69 71 73 73 71 67 62 59 58 58 53 41 34 35 35 31 26 24 23 22 22 23 23 25 28 29 30 30 27 27 26 25 24 24 22 22 23 25 26 27 26 26 26 24 24 24 24 23 23 25 28 31 32 33 35 35 36 36 33 31 31 33 34 35 35 36 37 38 39 38 36
42 40 40 40 40 42 44 45 47 49 52 54 56 58 61 64 66 66 69 72 70 65 62 60 57 57 56 47 38 36 35 31 28 26 25 25 25 25 26 27 29 32 32 30 28 27 27 26 25 25 24 24 25 26 27 27 27 28 28 28 28 27 26 26 26 28 31 33 34 35 36 37 38 40 38 35 34 36 37 37 37 37 36 36 37 37 38
41 39 39 38 37 40 44 44 45 47 50 53 55 57 61 63 63 65 68 69 66 63 62 59 54 53 53 48 43 39 35 31 29 27 27 29 30 29 28 26 29 33 34 31 29 28 27 26 26 27 27 27 27 29 30 30 29 29 29 29 29 29 28 28 29 32 34 36 36 38 39 39 40 42 42 40 39 40 41 43 43 42 39 36 35 35 36
42 41 39 37 38 41 42 40 40 42 45 49 52 55 58 61 63 65 66 65 63 62 61 57 53 52 50 46 44 41 36 34 32 29 29 32 33 31 28 26 29 34 34 32 31 30 29 30 31 30 30 30 31 32 33 32 31 29 28 26 25 25 26 29 31 34 37 38 39 41 42 42 42 43 44 44 44 44 45 46 48 48 46 41 38 37 36
43 42 40 39 39 39 37 34 35 38 42 45 48 52 54 56 59 62 62 61 60 60 59 57 55 53 48 45 45 43 39 38 36 33 32 34 34 31 28 27 29 32 30 29 30 31 31 33 34 34 34 35 35 36 36 34 32 29 26 24 23 23 26 30 34 37 39 41 42 43 43 43 44 44 45 46 46 47 48 49 49 50 49 46 42 39 37
45 43 43 42 39 36 35 34 34 39 42 43 47 51 53 55 58 59 59 59 57 56 56 56 56 53 47 45 45 43 41 39 37 35 35 35 35 33 30 29 30 31 29 27 28 31 33 36 38 39 40 39 38 38 37 35 32 30 28 27 26 27 30 34 37 40 42 44 44 44 43 44 44 45 46 47 49 50 51 52 51 51 51 48 44 40 38
45 44 44 43 40 38 38 36 36 40 42 43 47 50 51 54 56 57 58 57 55 53 53 54 55 52 49 46 44 42 40 38 36 36 36 37 38 37 33 31 32 34 32 30 31 34 37 40 43 44 44 42 40 40 40 37 33 32 32 32 32 32 34 36 38 40 42 44 44 43 43 44 44 46 47 49 50 52 54 54 53 52 52 49 44 40 38
46 45 45 44 43 41 38 36 37 39 40 42 46 48 50 51 52 53 56 56 54 52 51 52 53 53 49 45 43 42 40 39 38 37 36 38 40 40 37 34 34 36 35 34 36 38 41 43 44 45 46 45 42 42 42 40 36 34 33 34 35 36 37 38 39 40 41 42 43 44 45 45 46 47 49 51 53 55 56 56 54 53 52 49 44 40 37
48 47 47 46 44 42 39 37 38 39 39 42 45 49 51 49 47 50 53 54 53 51 50 51 53 52 49 45 41 40 40 41 41 38 38 40 41 41 39 37 37 38 37 38 40 41 43 44 44 45 46 45 42 41 42 41 40 37 35 35 36 37 38 39 41 41 41 43 45 47 48 48 49 50 51 54 56 58 59 57 53 52 52 49 43 39 36
48 46 48 46 43 42 40 39 39 39 39 41 44 48 47 44 43 47 51 53 52 51 50 51 51 51 49 44 40 39 40 41 41 39 40 41 40 39 39 38 38 39 38 39 42 43 44 45 45 46 46 45 44 43 43 43 42 40 37 36 36 37 39 41 42 42 43 45 48 49 50 50 51 52 54 57 58 60 59 54 49 49 50 47 41 38 35
49 48 50 49 45 42 38 36 37 38 39 41 44 45 42 40 41 44 49 52 52 51 50 50 50 50 47 41 39 40 40 40 41 41 42 41 40 39 38 38 39 40 40 41 42 44 45 46 47 48 47 46 45 45 45 44 42 40 38 38 38 39 40 42 44 44 45 47 50 51 52 52 53 54 56 57 57 55 52 47 45 47 47 43 38 36 34
51 50 51 51 50 46 40 35 34 37 40 42 42 41 39 39 40 42 46 50 50 50 50 50 50 47 42 39 39 40 40 40 41 43 44 42 40 40 38 38 40 41 42 43 43 44 46 47 48 49 49 48 47 46 45 44 42 41 40 40 41 42 43 45 46 45 46 49 52 53 54 54 54 53 52 51 50 48 46 45 45 44 41 37 36 34 33
50 51 52 52 50 47 43 39 37 39 41 41 39 39 39 38 38 39 42 46 48 48 48 48 48 43 39 38 40 41 40 40 41 44 45 43 42 42 41 40 40 41 43 43 43 43 44 46 47 48 48 49 48 47 46 44 43 43 43 43 44 45 45 45 45 46 49 51 52 53 54 53 51 48 45 45 44 43 43 42 40 37 35 35 35 34 34
47 48 50 49 45 41 41 42 41 41 41 39 38 38 38 36 35 35 37 41 43 45 45 45 43 40 38 38 39 40 40 40 42 44 45 44 44 44 43 42 41 41 42 41 41 42 43 44 45 46 47 48 50 50 49 46 44 45 47 47 46 45 45 45 46 49 51 51 50 51 51 49 46 42 41 39 38 37 36 35 34 34 34 34 34 34 35
43 43 43 42 40 38 38 41 42 41 40 39 39 39 38 36 34 32 32 34 35 37 41 41 40 39 39 39 38 39 39 38 40 42 43 43 44 45 45 44 42 41 40 39 39 40 40 41 42 43 45 47 48 50 51 49 47 48 49 46 44 44 45 46 48 49 49 48 48 48 47 44 41 38 35 33 32 32 32 32 33 34 34 34 34 35 36
41 41 40 39 38 37 38 41 42 40 38 38 38 37 37 36 33 30 29 30 31 32 36 38 39 38 37 36 36 36 37 36 38 39 41 43 44 44 45 44 42 40 39 38 38 37 38 39 40 41 43 44 45 45 47 48 48 48 47 45 44 45 45 45 47 47 46 45 45 43 41 39 37 34 33 33 32 32 33 33 34 35 35 35 36 37 38
40 39 38 38 37 36 37 40 41 39 37 38 38 37 35 33 32 30 28 28 30 32 35 38 38 36 34 34 35 36 37 38 39 39 40 41 42 43 43 43 41 39 38 38 37 37 38 39 41 42 43 43 43 42 43 45 45 45 45 45 45 45 45 46 47 45 43 42 41 39 38 37 36 35 35 35 35 34 35 36 36 37 37 38 39 40 41
37 37 36 36 37 37 37 39 39 38 37 39 39 38 36 34 32 30 28 28 30 33 36 37 37 36 36 36 37 38 38 39 39 39 40 41 42 43 44 44 44 42 41 39 39 39 39 40 41 42 42 41 41 42 43 44 43 43 44 45 45 46 47 49 48 44 41 40 39 38 38 39 39 38 38 38 38 37 38 39 39 40 40 41 42 43 43
36 36 35 35 37 37 38 40 41 39 38 40 41 41 39 37 36 34 32 31 32 35 38 38 38 38 39 38 39 40 40 39 38 39 40 43 44 43 44 46 47 46 45 45 44 41 39 38 39 39 40 41 41 42 43 43 42 43 45 46 46 47 49 50 47 43 40 40 40 40 41 41 41 41 41 40 40 40 40 41 42 43 43 43 43 44 44
34 35 35 36 36 37 38 41 43 42 41 41 43 44 41 39 39 40 41 40 38 39 40 40 39 40 40 40 39 39 37 35 35 37 40 42 44 43 44 46 48 49 49 46 42 37 34 34 37 39 41 42 42 43 44 44 44 45 47 47 48 49 49 49 46 43 41 41 42 43 43 43 43 43 43 42 42 43 43 43 44 45 45 45 45 45 44
29 30 33 35 36 37 39 41 41 42 44 45 45 45 43 41 40 42 46 47 45 43 43 42 41 40 40 40 39 36 34 34 35 36 39 42 43 44 44 45 48 50 47 39 33 31 32 34 37 38 40 42 42 43 44 45 45 46 48 48 48 48 49 47 45 43 42 42 42 43 43 43 44 44 44 44 45 45 45 45 46 46 46 45 45 46 45
23 25 29 35 36 34 35 39 42 43 44 46 48 46 43 42 44 44 46 47 45 44 44 44 42 40 40 40 39 38 37 37 37 37 39 42 43 43 42 42 43 43 39 33 30 32 33 34 36 38 40 42 43 44 45 46 48 49 47 46 46 48 48 47 44 42 42 42 42 42 43 44 45 46 46 47 47 47 47 46 46 45 45 45 45 46 46
21 23 27 34 36 33 31 35 43 47 46 44 45 44 41 42 45 46 46 46 46 45 45 45 44 43 42 42 42 41 40 39 38 37 38 39 41 41 40 38 37 35 33 33 33 34 34 36 39 41 42 43 44 45 45 45 46 45 43 42 45 48 48 46 43 42 41 41 41 42 43 45 46 48 48 48 48 47 47 46 44 44 44 45 46 47 46
21 23 27 31 34 34 32 31 35 42 46 46 45 45 44 44 45 44 44 44 44 44 43 43 43 44 44 44 44 43 42 41 39 37 36 37 39 40 38 36 35 34 34 35 36 37 38 39 41 42 42 42 42 41 39 38 39 39 38 41 44 47 46 45 43 42 41 42 42 43 44 46 48 48 48 48 47 46 45 44 44 44 46 47 47 47 44
23 24 28 30 30 33 35 32 29 32 38 43 45 44 44 46 47 47 45 44 43 43 43 43 44 45 46 46 46 45 43 42 40 39 38 39 39 38 37 36 36 36 36 36 37 38 38 39 39 39 38 37 37 36 35 36 37 38 39 41 44 45 45 44 43 42 42 43 43 44 45 46 47 47 47 46 44 43 42 43 44 46 47 47 47 44 39
25 24 25 27 27 28 31 34 32 29 29 32 38 41 42 45 49 51 50 49 48 47 47 47 47 48 48 48 48 47 45 44 43 43 42 41 39 37 36 36 35 35 34 34 35 36 37 37 36 35 35 34 34 35 36 37 38 39 40 42 43 44 44 43 42 43 43 44 44 45 45 45 45 45 44 42 40 40 41 44 46 47 47 46 43 38 34
27 25 24 25 26 26 27 30 34 35 32 29 31 37 42 44 46 48 50 51 51 51 50 49 49 49 49 47 45 45 46 45 44 43 41 38 36 35 34 34 33 33 33 34 35 36 36 36 35 35 36 36 36 37 38 39 40 41 42 43 43 43 42 42 42 43 44 44 44 44 44 44 43 41 40 39 39 41 43 45 46 46 45 42 37 33 31
28 27 26 26 25 26 27 27 29 31 31 30 30 34 39 39 38 38 41 43 44 45 45 44 41 41 43 43 41 40 40 40 39 38 35 33 31 31 30 30 31 31 33 35 36 37 38 38 38 39 39 40 40 41 41 42 43 43 44 43 42 41 41 42 43 43 43 43 43 43 43 43 41 39 39 40 42 43 44 44 44 43 40 36 32 31 31
29 27 28 28 28 28 28 28 27 27 28 28 28 30 32 33 33 33 34 37 38 36 35 33 30 30 32 34 32 30 30 29 29 29 28 27 27 27 28 29 31 32 35 37 39 40 41 41 42 43 43 43 44 44 44 45 45 45 44 42 42 42 43 43 44 43 43 43 44 43 42 42 41 41 41 42 43 43 43 42 41 40 37 35 34 33 32
28 29 29 31 32 30 29 28 27 26 26 25 24 26 28 30 33 33 34 35 35 31 27 24 23 24 26 27 26 25 24 24 25 25 26 26 27 29 31 33 36 38 40 41 43 43 44 45 45 45 46 46 46 46 45 45 45 44 43 43 43 44 44 44 44 44 44 44 44 43 42 42 43 43 43 42 42 41 40 41 41 41 40 38 35 33 33
24 30 33 34 33 32 31 31 32 32 31 28 27 28 30 30 29 28 26 25 24 22 19 18 18 20 22 24 24 25 25 26 27 28 29 30 31 34 36 38 40 42 43 44 45 45 46 46 47 47 46 46 46 46 46 45 45 44 44 44 45 45 45 45 44 44 43 42 42 42 42 42 42 42 42 40 38 39 40 41 41 39 37 35 33 32 33
23 30 34 35 35 33 32 32 33 35 36 36 34 34 33 30 25 22 20 19 18 17 18 18 19 21 22 24 25 26 27 28 29 30 31 32 34 36 37 39 40 42 43 44 45 45 45 46 46 46 46 45 45 45 45 45 45 45 45 45 45 44 44 43 42 41 41 41 41 42 41 41 41 42 40 37 36 38 39 37 34 32 31 31 30 30 29
23 24 27 29 30 29 27 27 28 29 31 33 32 31 28 25 21 19 18 17 16 17 18 19 20 21 22 23 25 26 27 28 29 30 31 32 33 34 35 37 38 39 41 42 43 44 44 44 45 45 45 44 44 44 44 44 44 44 44 44 43 42 42 42 42 42 42 43 43 43 42 42 42 41 39 37 37 37 35 32 31 33 33 30 27 25 24
18 18 18 20 23 24 24 24 25 25 25 25 24 23 21 19 17 17 16 15 15 16 17 18 19 20 21 22 23 24 26 27 28 29 30 31 32 33 34 35 36 37 39 40 41 42 43 43 43 44 44 44 43 42 41 41 42 42 41 41 41 41 42 43 44 44 44 45 45 45 44 43 41 39 38 37 37 36 34 34 36 35 31 26 22 21 22
11 13 15 15 16 18 19 20 20 19 19 18 18 17 17 16 16 16 16 16 16 17 17 18 19 20 22 23 25 26 27 28 29 30 31 32 32 33 34 35 36 36 37 38 38 39 40 40 40 41 41 41 40 38 37 38 39 40 40 40 41 42 43 44 45 45 46 45 44 43 41 39 37 36 36 36 36 37 38 37 33 27 23 21 20 20 21
8 9 11 13 13 14 15 16 17 16 16 16 16 15 15 15 15 15 16 16 17 17 18 19 20 21 22 24 25 26 27 28 29 29 30 30 31 32 33 34 35 35 35 36 36 36 36 37 37 37 37 37 37 37 37 37 38 39 40 40 41 42 42 42 42 42 41 40 39 38 37 36 36 37 37 38 39 39 37 32 25 21 20 20 20 20 21
11 10 10 11 12 13 14 15 16 17 17 16 16 16 15 15 15 15 15 16 17 17 18 19 20 21 22 23 24 24 25 25 26 27 27 28 29 30 32 33 33 34 34 34 34 34 35 35 35 36 36 36 37 37 37 37 38 38 38 39 40 40 39 39 38 36 35 34 35 36 37 37 37 39 40 39 38 36 33 28 24 22 21 21 21 21 21
13 12 11 11 11 12 13 13 14 15 15 15 14 14 14 14 14 15 16 16 17 18 19 20 21 22 22 22 22 22 23 23 23 24 25 26 27 28 29 30 31 31 32 32 33 33 34 34 35 35 36 36 36 35 35 35 35 36 36 37 37 37 37 36 35 34 34 35 36 38 39 39 39 38 36 35 34 33 31 28 25 23 22 21 21 20 19
14 13 12 11 10 10 11 11 11 11 12 12 12 13 14 14 15 16 17 18 18 19 20 20 21 21 21 21 21 21 21 22 22 23 23 24 24 25 26 27 28 28 29 30 31 32 33 33 33 33 33 33 33 33 33 33 33 34 34 35 35 34 34 34 34 34 36 37 38 38 38 37 35 33 32 32 31 30 28 26 24 23 23 21 20 19 18
14 13 12 11 11 10 10 11 11 11 12 13 14 15 15 16 16 17 18 18 19 19 20 20 21 21 21 21 21 21 21 21 22 22 22 23 23 24 25 25 26 26 27 28 29 29 30 30 29 30 30 30 30 31 31 31 31 32 32 32 31 30 30 30 30 30 31 32 33 33 33 32 32 31 31 30 28 27 26 26 25 24 22 20 18 18 18
11 11 12 12 12 12 11 12 12 13 13 14 15 15 16 16 16 17 18 19 20 20 20 21 21 21 21 21 20 20 20 21 21 21 22 22 23 23 24 24 24 25 25 25 26 26 26 26 26 27 27 27 27 27 28 28 28 28 28 28 28 27 27 27 27 27 27 27 29 30 31 30 30 29 28 26 26 26 26 26 25 23 21 19 18 18 19
11 12 12 13 13 12 12 12 12 12 13 14 14 15 16 16 17 18 19 20 20 20 20 21 20 20 20 20 19 19 19 20 20 20 21 21 21 22 22 22 22 22 23 23 24 24 24 24 24 24 24 25 25 26 26 27 27 28 28 28 27 27 27 27 27 26 26 27 28 28 28 28 27 26 25 25 26 26 25 24 23 22 20 19 19 19 19
12 12 13 13 13 12 11 12 12 12 13 14 15 16 16 17 17 18 19 19 20 20 20 20 20 20 19 19 19 19 19 19 20 20 21 21 21 21 21 21 21 21 21 22 22 23 23 23 24 24 25 26 26 27 27 28 28 28 28 28 28 28 27 27 27 27 27 27 27 27 27 26 26 26 26 25 25 24 23 23 22 21 20 20 19 20 21
11 12 12 12 12 12 12 12 13 14 14 15 15 16 16 17 17 18 18 19 20 20 20 20 20 19 19 19 19 19 20 20 21 21 21 21 21 22 22 22 22 22 22 23 23 23 24 24 25 25 26 27 27 27 28 28 28 28 28 28 28 27 27 27 27 27 27 27 27 27 26 26 25 24 24 23 22 22 21 21 20 20 20 20 20 21 22
10 10 11 12 12 13 14 14 14 15 15 15 15 15 16 17 17 18 18 19 19 20 20 20 20 19 20 20 20 20 21 21 21 22 22 22 22 22 22 22 23 23 24 24 25 25 25 26 26 26 27 27 28 28 28 28 28 28 28 28 28 28 28 27 27 27 26 26 25 25 24 23 22 21 20 20 21 21 20 20 20 20 20 20 21 22 22
12 12 13 13 14 15 15 15 15 15 15 15 15 16 16 17 17 18 18 19 20 20 21 21 21 21 21 21 21 21 22 22 22 22 22 22 23 23 23 23 23 24 24 25 25 26 26 27 27 27 28 28 28 28 28 28 29 29 29 29 28 28 27 26 25 24 23 23 23 22 21 20 20 20 20 20 21 21 21 21 21 21 21 22 23 23 24
13 14 14 14 14 15 14 14 14 15 15 15 16 17 18 18 18 19 19 20 20 21 21 22 22 22 22 22 22 22 23 23 23 23 23 23 23 24 24 24 24 25 25 26 26 27 27 28 28 29 29 29 29 29 29 29 29 29 29 28 27 25 24 23 22 22 21 21 21 21 21 21 21 21 22 22 22 22 22 22 22 22 23 24 24 25 26
13 13 14 14 14 14 15 15 15 16 16 17 18 19 19 19 19 20 20 21 21 22 22 22 22 23 23 23 23 23 23 24 24 24 24 24 24 25 25 25 25 26 26 27 27 27 28 28 29 29 29 29 29 29 28 28 28 27 26 25 24 23 23 22 22 22 22 22 23 23 23 23 23 24 24 24 24 24 24 25 25 25 25 26 27 27 28
13 13 13 14 15 16 16 17 17 17 18 19 20 20 20 20 20 20 20 21 22 23 23 24 24 24 24 25 25 25 25 25 25 25 25 25 25 26 26 26 26 27 27 27 27 28 28 28 28 28 28 28 28 28 27 26 25 25 25 24 24 24 24 24 24 24 25 25 26 26 26 27 27 27 27 27 27 26 26 27 27 27 27 28 28 29 30
13 14 15 16 17 18 18 18 18 18 19 20 20 21 21 21 21 21 21 22 23 24 25 25 26 26 26 26 26 26 26 26 26 26 26 26 26 27 27 27 27 27 28 28 28 28 28 28 28 28 27 27 27 27 27 26 26 26 26 26 27 27 27 28 28 28 28 29 29 29 29 29 29 29 28 28 28 28 28 29 29 29 29 30 30 31 31
Wind_Direction
240 239 238 238 240 242 239 237 236 235 235 235 233 234 234 232 232 236 238 238 239 238 234 233 239 238 230 229 233 229 227 227 224 221 225 234 241 243 247 253 256 256 255 256 258 261 261 260 260 258 254 252 250 246 245 246 249 251 253 257 260 263 267 271 275 281 284 285 283 283 287 293 295 293 294 298 300 303 305 308 316 324 326 326 326 323 321
239 239 239 237 238 241 241 238 238 237 238 238 237 237 237 236 235 237 239 240 240 240 237 234 237 243 241 232 228 230 231 228 225 224 227 236 241 240 241 246 249 251 253 255 257 259 258 257 256 255 253 252 249 247 248 249 251 254 257 262 267 270 273 275 278 282 283 283 284 288 296 304 306 302 301 305 308 314 319 319 322 326 326 324 321 321 320
239 239 239 239 238 239 241 241 239 237 238 238 239 238 237 237 237 238 241 243 243 242 240 237 236 240 243 237 226 228 233 228 224 226 231 236 236 236 238 239 241 244 247 251 254 257 256 253 251 250 250 250 249 250 251 252 255 258 262 267 271 272 275 277 281 285 285 286 288 293 299 305 305 302 305 311 314 316 320 322 324 324 322 319 317 318 319
239 240 240 241 241 240 241 243 241 238 238 238 238 239 237 237 237 239 241 243 243 243 242 241 238 238 241 240 234 233 233 227 223 226 231 233 229 229 235 236 236 239 242 247 251 252 252 250 250 250 251 252 255 256 257 258 259 262 266 270 272 274 277 280 283 288 291 292 292 294 295 297 298 300 305 311 312 312 313 317 320 320 316 314 313 316 318
237 240 239 240 241 239 238 240 241 240 239 239 238 239 239 238 237 238 240 241 243 243 242 241 240 239 240 241 240 237 232 227 228 228 230 230 225 224 229 230 230 234 239 242 243 242 245 248 249 249 251 255 259 260 262 263 263 266 272 276 276 275 276 279 285 292 296 296 293 293 294 297 301 304 308 311 313 312 312 314 318 320 318 314 314 315 316
237 238 238 236 236 237 239 242 245 246 244 243 242 241 242 241 240 239 241 242 243 243 241 239 239 239 239 238 238 236 230 227 229 228 227 226 221 219 220 221 226 232 235 235 235 235 240 245 248 250 252 256 258 260 263 265 267 272 278 281 279 277 279 286 294 299 300 299 298 299 300 302 304 306 308 311 312 311 312 314 318 321 319 317 316 316 316
238 237 238 237 237 240 244 245 246 248 247 245 243 241 240 239 239 239 240 240 241 242 241 238 238 238 236 234 234 233 228 223 223 223 223 221 216 212 213 218 226 232 231 229 230 232 237 243 248 250 252 254 257 260 263 267 270 275 279 278 279 286 293 299 303 305 306 306 305 305 304 305 306 306 308 308 308 308 309 311 314 318 318 316 315 315 315
240 239 239 240 242 243 245 244 242 244 245 243 240 238 237 237 237 236 236 236 237 240 240 238 238 238 236 233 231 229 224 220 218 217 218 218 214 210 211 217 224 229 229 226 226 230 237 243 247 249 251 253 257 261 265 269 272 275 277 276 276 286 297 304 306 306 306 307 307 306 305 305 305 306 307 307 306 306 306 306 309 314 315 313 312 313 313
240 241 241 242 244 244 243 242 240 241 243 242 241 241 240 240 240 237 235 234 234 236 237 236 237 238 237 234 230 225 222 220 217 216 217 218 215 211 211 217 222 227 228 226 226 230 237 243 247 250 253 255 260 265 269 273 277 279 281 280 278 284 294 301 304 303 303 304 304 304 303 302 302 303 303 304 305 305 305 304 305 307 311 311 309 310 310
241 243 244 244 247 246 241 239 239 242 244 242 242 244 243 242 241 239 236 234 232 233 234 234 235 237 237 235 229 223 221 221 219 218 217 217 217 215 214 217 223 228 228 228 230 233 237 243 248 254 258 261 265 270 272 275 279 281 282 284 285 287 293 297 298 298 299 301 301 300 300 299 299 299 299 301 302 301 301 302 300 302 306 307 305 306 308
240 244 245 246 248 245 240 237 239 242 243 241 239 241 243 245 244 240 236 233 231 230 231 232 234 235 236 234 228 222 222 222 219 217 216 215 217 219 218 218 223 228 228 228 231 234 238 243 248 254 259 263 268 271 273 277 281 281 280 284 287 289 291 292 293 293 295 298 299 298 297 296 295 295 296 297 297 296 298 298 296 298 302 303 302 303 305
239 242 244 246 246 242 237 236 238 239 240 238 236 237 242 247 247 242 238 234 230 227 228 229 231 232 233 231 227 223 223 221 218 215 213 213 216 220 220 220 223 228 229 229 231 234 238 243 248 253 258 263 267 270 273 278 283 283 280 281 284 286 288 288 288 289 291 295 298 298 297 295 293 293 293 293 293 295 297 296 294 296 299 299 299 301 302
240 242 245 245 245 243 240 239 239 239 239 237 237 239 244 248 249 244 239 235 231 227 226 226 227 230 230 227 225 225 224 220 215 213 212 214 217 220 221 224 226 229 231 232 234 237 240 245 249 254 258 263 266 270 273 277 280 280 277 277 280 283 285 285 285 287 291 295 298 299 298 297 295 292 290 291 294 296 297 295 294 295 295 294 296 299 300
238 242 245 246 246 245 244 245 244 241 239 238 239 244 246 247 248 245 241 237 233 228 225 225 226 228 226 223 224 226 223 219 216 214 214 216 219 221 224 226 229 231 234 235 238 241 244 248 251 255 259 263 266 270 272 273 273 272 271 272 275 277 279 281 283 288 293 298 299 299 299 300 298 292 289 291 294 295 295 294 293 292 291 291 295 297 301
236 239 243 245 246 243 244 250 249 244 241 240 240 243 246 246 246 245 243 241 237 231 228 227 226 224 220 220 224 226 225 222 219 217 217 218 221 224 226 228 231 233 236 238 241 244 247 250 254 256 259 263 265 267 269 270 271 270 268 269 271 274 277 280 285 291 296 298 298 298 300 301 297 291 290 292 293 291 291 290 289 287 287 290 294 298 302
234 238 242 245 248 246 247 250 248 243 242 241 239 239 240 242 242 242 243 245 242 235 230 227 224 220 217 220 224 227 226 225 222 219 219 220 223 226 228 230 232 235 238 241 244 247 250 252 255 257 259 261 263 265 267 269 270 269 269 270 273 277 281 285 290 294 295 295 295 297 298 297 293 290 290 292 290 288 287 286 285 285 288 292 297 300 302
236 240 243 247 249 248 248 247 244 240 238 237 235 234 234 237 240 238 237 242 244 238 229 223 218 215 217 221 224 226 227 226 224 222 223 224 227 229 230 231 233 237 241 244 247 249 252 255 257 260 263 266 268 269 268 266 265 266 269 273 277 280 285 291 294 294 293 293 294 295 294 292 290 289 290 290 289 288 288 287 288 290 293 297 299 299 299
235 238 241 244 245 246 246 243 238 234 232 231 231 231 232 234 236 232 228 231 236 233 224 216 212 214 219 222 223 225 227 226 223 224 226 228 230 231 233 236 240 242 243 244 245 246 250 253 256 261 266 271 273 272 270 268 267 270 274 277 279 282 286 292 294 293 291 291 293 293 292 289 289 289 289 289 289 290 290 292 293 295 297 299 299 297 297
236 239 241 244 246 246 241 233 227 227 228 227 225 226 227 228 229 225 220 221 225 224 217 212 213 217 221 222 222 223 224 223 222 222 225 228 230 233 236 239 241 240 239 240 241 244 248 252 257 262 267 270 271 272 272 272 273 275 277 278 279 281 284 289 292 290 288 289 290 290 289 288 288 288 289 290 291 293 294 296 297 298 299 299 298 297 297
238 241 243 246 247 245 238 227 221 221 225 224 221 220 220 220 218 215 210 212 217 217 213 213 218 221 221 221 221 220 219 220 221 223 225 228 232 234 237 240 240 237 234 236 239 243 248 253 259 264 267 270 272 273 275 277 278 277 276 277 278 279 283 288 289 286 283 285 287 286 285 286 287 289 291 292 294 295 296 297 298 299 299 299 298 298 298
239 242 244 244 244 242 235 226 220 219 220 219 217 216 216 215 211 205 201 204 211 214 214 215 218 220 219 219 220 219 218 219 221 223 226 230 233 235 237 240 240 237 235 237 241 245 249 253 259 264 268 271 274 275 276 277 278 276 275 276 277 280 284 286 283 279 279 281 282 282 283 285 287 290 292 293 293 293 294 295 297 298 298 298 298 297 296
238 240 241 239 237 234 228 222 219 218 217 216 213 213 214 214 209 202 196 196 204 211 214 213 213 215 218 220 223 225 224 225 228 230 232 234 236 238 239 241 243 243 241 240 242 247 252 257 261 264 268 270 272 274 275 276 277 276 275 276 278 280 283 281 277 274 276 278 279 281 283 284 287 289 290 290 291 291 292 294 296 296 296 295 294 294 294
235 237 232 227 225 225 222 220 219 218 217 215 213 211 210 211 212 209 200 195 195 201 206 208 209 212 217 222 225 227 229 233 236 238 239 240 241 242 243 247 250 250 245 240 241 248 254 259 262 264 266 268 269 271 273 274 276 277 276 275 276 278 278 275 273 273 276 279 280 281 283 285 287 288 289 289 290 291 293 294 295 294 294 293 293 293 295
230 232 224 216 215 218 221 223 223 221 217 215 213 211 208 207 209 210 206 199 195 197 204 211 213 214 217 221 223 226 231 235 238 241 243 245 247 247 247 249 250 249 246 245 249 254 257 260 262 263 264 265 267 269 271 272 275 275 273 272 274 275 274 272 273 275 278 279 281 282 284 286 287 287 288 289 290 291 292 294 294 294 294 293 294 294 295
221 223 220 214 212 216 220 220 219 218 217 213 210 208 208 207 207 208 207 205 203 203 207 212 215 217 220 223 225 228 232 235 237 239 241 244 248 249 245 241 242 246 250 254 257 258 259 260 262 263 265 267 269 270 271 271 271 270 268 269 271 272 272 272 274 276 277 278 280 283 285 286 286 286 287 288 289 291 293 294 294 294 293 293 293 293 294
217 217 217 215 214 217 217 211 205 206 209 209 206 204 205 206 208 208 206 206 206 206 207 211 216 220 224 227 229 230 233 235 237 238 239 244 249 249 243 238 242 250 255 257 258 260 261 262 264 266 268 269 270 269 269 268 267 266 267 268 269 269 270 272 273 274 276 278 280 283 285 285 286 287 287 289 291 294 294 294 293 291 291 291 290 291 294
217 215 216 217 217 218 220 217 206 197 198 201 202 204 204 205 207 209 209 207 208 210 210 213 217 222 226 229 231 233 235 236 237 238 239 243 245 245 243 245 251 255 256 257 259 260 262 263 264 266 267 267 266 265 264 264 266 268 268 268 267 267 268 270 272 274 277 279 281 284 286 287 287 288 289 291 293 294 293 291 290 289 288 288 288 290 293
216 215 216 219 220 220 222 222 220 213 207 202 202 205 208 209 210 212 213 213 213 214 215 217 220 224 226 228 230 232 233 234 235 237 238 238 238 240 244 247 249 250 251 254 256 258 259 261 262 263 263 263 262 262 262 263 265 266 265 265 265 266 268 270 273 276 278 281 284 287 288 288 288 289 291 292 292 291 290 289 287 286 286 286 288 289 289
211 210 211 215 219 222 222 222 224 228 231 226 215 209 209 211 212 213 214 215 217 218 219 220 222 224 227 228 230 232 233 234 235 236 234 233 234 237 241 243 244 247 250 252 254 255 256 257 259 261 261 261 260 260 260 261 261 262 262 263 264 266 269 272 274 277 281 284 286 287 287 287 288 289 290 290 289 288 287 286 285 286 286 286 286 288 287
209 212 213 214 217 221 221 221 221 223 227 230 227 219 214 214 216 215 214 215 217 219 220 221 222 225 228 231 234 236 236 235 234 232 229 228 231 235 238 242 246 249 251 252 253 254 255 257 258 259 258 258 258 258 258 258 259 260 261 263 264 267 269 273 277 280 283 285 285 285 285 286 286 287 287 286 286 286 285 285 287 288 286 284 285 289 289
212 213 215 215 217 218 218 218 219 219 220 222 224 224 223 224 226 225 223 223 225 227 229 230 230 230 232 234 236 236 234 232 231 230 230 233 237 239 241 245 247 249 251 252 253 254 256 257 257 257 257 258 258 257 258 259 260 261 263 264 266 269 272 276 280 282 283 283 283 283 284 284 285 285 286 286 286 286 285 287 289 289 285 284 286 289 288
212 212 214 215 216 216 217 217 218 218 215 212 213 218 222 224 225 226 225 227 230 233 233 231 228 226 227 229 230 228 227 226 228 231 235 238 239 239 240 243 245 247 249 251 252 254 255 256 256 257 257 258 258 259 260 261 263 264 266 268 270 272 276 279 281 282 282 282 281 282 283 284 284 286 288 289 288 287 287 289 289 287 284 284 284 286 287
216 215 215 215 214 215 217 219 219 217 214 209 209 213 214 211 209 210 211 211 214 215 214 212 212 214 218 222 225 226 227 229 232 235 237 238 239 240 241 243 245 248 249 251 252 254 255 255 256 257 257 258 260 261 263 264 266 268 270 272 274 276 278 281 282 282 282 281 281 282 283 283 284 287 288 288 289 290 290 289 287 285 284 284 285 286 288
222 215 211 209 207 206 208 211 211 211 210 207 207 208 206 200 193 188 187 188 193 199 205 210 215 219 221 224 226 228 230 233 234 236 238 240 242 243 244 245 247 249 251 253 254 254 255 256 257 258 259 260 262 264 266 269 271 272 274 275 277 278 279 280 281 280 280 280 280 280 280 283 286 286 283 282 287 290 286 283 284 288 291 291 290 289 287
209 205 201 199 197 195 195 195 195 195 196 196 195 193 191 188 184 183 185 190 198 206 212 218 223 226 228 231 233 234 236 238 240 241 243 245 246 247 248 248 249 250 252 254 255 256 257 258 259 261 263 264 266 269 271 273 273 274 275 276 278 278 279 279 278 277 277 277 277 278 281 284 286 283 279 280 284 282 276 278 288 296 298 295 291 287 285
181 177 176 178 177 174 174 177 178 178 179 180 179 179 180 183 188 192 195 199 204 209 216 222 227 231 235 237 239 241 242 243 244 245 246 248 249 251 252 252 252 253 254 256 258 260 261 262 264 266 267 269 270 272 273 273 273 274 275 277 278 278 277 278 278 277 277 278 279 281 283 283 282 281 281 280 278 275 278 289 297 300 298 295 291 287 287
164 158 156 157 157 157 159 163 166 168 172 174 174 177 181 186 189 192 196 200 206 213 221 226 230 234 238 239 241 242 243 243 244 246 247 249 251 253 255 256 257 258 259 260 261 263 264 265 267 268 268 269 270 270 270 270 272 274 276 277 277 277 278 279 280 280 280 281 282 283 282 281 280 280 279 276 275 281 292 299 301 298 294 292 290 289 291
191 171 159 154 156 158 159 162 166 169 173 176 178 180 185 191 195 200 206 212 218 224 230 234 237 239 241 242 243 243 244 245 246 247 249 251 253 255 257 258 259 260 261 262 262 263 264 265 266 267 268 268 269 269 269 270 271 273 275 275 276 276 277 279 280 281 281 281 281 280 278 276 276 277 278 280 285 293 299 302 301 297 295 294 294 296 298
208 196 178 167 166 167 167 169 172 174 177 182 186 191 198 205 211 217 222 228 232 236 239 243 245 245 246 246 246 246 247 248 249 250 252 253 254 256 257 258 260 261 263 264 265 265 266 266 266 266 267 267 268 268 269 270 270 271 272 273 274 275 276 278 279 279 278 277 276 274 272 272 275 279 284 288 293 297 299 299 298 296 294 294 296 297 296
208 206 198 190 186 185 184 185 186 187 190 195 200 206 215 222 228 234 238 241 243 244 245 246 246 246 247 247 248 249 250 251 252 252 254 255 256 257 258 260 261 262 263 264 265 266 266 266 266 265 265 266 266 266 267 267 268 269 271 272 274 274 275 275 275 274 273 273 272 271 271 275 280 285 288 290 291 292 292 291 290 290 290 292 293 292 289
212 212 210 207 205 204 205 207 209 209 211 216 220 226 231 235 239 242 245 246 246 246 245 245 245 246 247 248 249 251 252 253 253 254 256 257 258 259 260 260 261 262 262 263 263 263 263 264 264 265 265 266 266 267 268 268 269 270 271 272 273 273 274 274 274 273 273 274 273 271 272 276 280 283 284 285 284 283 283 283 283 285 287 288 286 283 279
221 222 221 219 218 220 221 223 225 227 229 231 234 236 239 242 244 245 246 247 246 246 244 244 244 245 246 248 250 251 253 254 255 256 257 258 259 259 260 260 261 261 262 262 262 263 263 264 265 266 267 267 268 269 269 270 270 271 272 272 274 275 275 276 276 275 275 274 272 271 273 275 277 278 279 278 277 276 277 279 281 282 283 281 277 272 269
232 230 228 226 224 225 226 228 230 233 235 238 242 244 245 246 247 247 248 247 247 246 245 245 245 246 246 247 249 251 253 256 258 259 260 261 261 260 260 259 259 259 259 260 261 262 263 264 265 266 267 268 269 270 270 271 272 273 273 274 275 275 276 276 276 276 275 274 272 272 273 274 275 276 275 275 275 276 278 280 280 280 279 275 268 263 263
238 234 232 231 230 229 230 232 235 237 239 242 244 245 246 246 246 246 246 247 247 247 247 247 247 247 246 247 248 249 251 253 255 257 258 259 259 259 259 259 259 259 259 259 260 261 263 264 265 266 268 269 270 271 271 272 273 273 274 274 274 274 274 275 276 276 275 275 275 275 276 276 277 277 277 277 278 279 278 278 278 277 274 269 263 260 263
240 237 236 235 235 235 236 236 237 238 238 239 240 240 242 244 245 246 247 248 249 249 249 249 247 246 245 245 246 247 248 249 250 251 252 253 254 255 256 257 258 259 260 261 263 264 265 266 268 269 270 271 271 271 271 272 272 272 272 272 272 273 273 274 275 275 275 276 277 278 279 279 280 279 279 278 277 276 275 275 274 272 269 264 261 260 264
243 241 239 238 237 236 235 235 235 234 235 236 237 239 242 244 245 247 249 251 251 252 251 250 249 248 247 246 246 246 247 248 248 249 250 251 252 254 255 256 258 259 261 262 264 265 267 268 269 270 270 270 270 270 270 271 271 271 271 271 271 271 272 272 273 274 275 275 277 278 278 279 279 278 277 275 274 274 274 275 274 271 267 264 261 261 265
246 244 242 240 237 234 232 231 231 232 234 236 239 242 244 246 247 248 250 251 252 252 251 250 249 249 248 248 249 249 249 250 251 252 253 255 256 257 258 260 261 262 263 264 265 266 268 268 269 269 269 269 269 269 269 269 269 269 269 269 269 269 270 271 272 273 274 274 275 276 277 277 276 276 275 275 275 276 277 277 276 273 270 268 267 267 269
240 238 235 233 232 231 230 230 231 234 237 240 244 246 248 250 252 253 254 254 254 254 253 251 250 249 248 249 250 251 252 253 254 255 256 257 258 259 260 261 262 263 264 265 266 267 267 268 268 268 268 268 268 268 268 268 269 268 268 268 268 268 268 268 269 270 271 272 272 273 274 275 275 275 276 276 277 278 279 278 277 276 274 274 273 273 274
232 231 230 230 231 232 232 233 236 239 242 244 247 250 252 253 254 255 256 256 255 255 254 253 252 251 251 251 252 252 253 254 255 256 256 257 258 259 260 261 262 263 264 265 266 267 267 267 267 267 267 267 267 267 267 267 267 267 267 266 265 265 264 264 265 266 268 270 271 273 274 274 275 275 275 275 275 276 277 277 276 276 275 275 275 276 277
227 230 232 234 237 240 242 243 245 246 248 250 251 252 254 256 256 256 256 256 256 256 256 255 255 255 255 255 255 255 255 255 255 256 257 258 259 260 261 262 263 264 265 266 266 267 267 267 267 267 267 266 266 265 264 265 265 264 264 263 262 262 262 263 265 267 268 270 271 271 272 272 272 272 272 273 273 274 274 274 274 274 274 274 276 277 278
232 236 241 245 248 250 251 253 254 255 256 257 257 257 257 258 258 258 258 257 257 257 257 257 257 258 258 257 257 258 258 258 258 258 259 260 261 263 264 265 266 266 267 267 266 266 266 266 266 266 265 265 264 263 263 262 263 263 263 263 263 264 264 265 266 266 267 267 268 269 270 270 270 271 271 271 272 272 272 273 273 274 274 275 276 278 280
246 248 252 256 258 259 259 260 260 261 261 262 262 262 260 259 257 256 255 255 254 254 254 255 256 257 258 259 260 260 261 262 263 263 264 265 266 267 267 268 268 268 268 267 266 265 265 264 264 263 263 263 264 263 263 262 262 263 264 265 265 266 267 267 267 267 267 267 267 268 268 269 269 270 270 271 272 272 272 272 273 274 275 276 277 278 279
Height
5766 5769 5772 5775 5776 5777 5780 5783 5785 5787 5788 5792 5795 5796 5801 5807 5807 5805 5809 5813 5815 5821 5831 5835 5834 5836 5841 5846 5849 5851 5853 5854 5855 5857 5860 5862 5863 5865 5866 5867 5868 5869 5870 5871 5871 5871 5871 5872 5872 5873 5873 5874 5874 5874 5874 5874 5874 5873 5873 5873 5874 5874 5874 5875 5875 5874 5874 5871 5867 5866 5865 5867 5868 5869 5870 5869 5866 5864 5863 5861 5861 5859 5857 5854 5852 5850 5848
5761 5763 5766 5770 5772 5773 5775 5777 5779 5782 5784 5786 5788 5792 5797 5801 5801 5802 5805 5807 5810 5816 5824 5830 5832 5833 5836 5841 5844 5846 5847 5849 5850 5853 5856 5858 5860 5861 5863 5864 5865 5866 5867 5868 5868 5868 5868 5869 5870 5870 5871 5871 5871 5871 5871 5871 5870 5870 5870 5871 5871 5871 5871 5872 5872 5871 5869 5866 5864 5864 5864 5864 5864 5866 5867 5865 5862 5860 5859 5858 5856 5855 5852 5850 5848 5847 5845
5755 5758 5761 5764 5766 5768 5769 5771 5774 5777 5778 5780 5783 5786 5790 5793 5794 5798 5801 5801 5804 5811 5818 5824 5828 5830 5831 5835 5838 5840 5843 5844 5846 5849 5852 5854 5856 5857 5859 5861 5862 5863 5864 5865 5866 5866 5866 5867 5867 5868 5868 5868 5868 5868 5868 5868 5868 5868 5868 5868 5869 5869 5869 5869 5869 5868 5865 5864 5863 5863 5863 5862 5860 5859 5860 5860 5858 5857 5856 5855 5854 5852 5850 5848 5845 5843 5841
5750 5754 5757 5758 5761 5763 5764 5765 5768 5770 5772 5775 5777 5780 5783 5786 5789 5793 5795 5794 5798 5806 5813 5817 5822 5825 5827 5829 5833 5836 5838 5840 5842 5845 5849 5851 5852 5853 5855 5857 5859 5859 5860 5862 5864 5863 5863 5864 5865 5865 5865 5865 5865 5865 5865 5865 5865 5865 5865 5866 5866 5866 5867 5867 5866 5865 5864 5863 5863 5861 5860 5858 5857 5854 5854 5855 5854 5853 5852 5852 5851 5850 5848 5845 5842 5839 5837
5746 5750 5751 5754 5757 5756 5754 5758 5763 5765 5767 5770 5772 5775 5777 5780 5784 5787 5787 5790 5795 5801 5806 5810 5816 5820 5822 5824 5828 5832 5834 5836 5838 5841 5844 5847 5848 5849 5851 5853 5855 5856 5857 5859 5861 5860 5860 5861 5861 5861 5861 5862 5862 5862 5861 5862 5862 5862 5863 5863 5863 5864 5864 5864 5864 5863 5862 5862 5861 5859 5856 5855 5853 5851 5850 5849 5848 5848 5846 5846 5845 5844 5843 5840 5838 5836 5833
5742 5745 5746 5749 5749 5747 5749 5756 5761 5762 5764 5766 5768 5770 5772 5775 5778 5781 5784 5789 5792 5794 5798 5805 5809 5813 5816 5820 5823 5826 5829 5832 5834 5837 5840 5842 5844 5846 5847 5850 5851 5852 5854 5856 5857 5858 5858 5858 5857 5858 5858 5858 5858 5858 5858 5858 5859 5860 5860 5860 5860 5861 5862 5862 5862 5861 5860 5859 5858 5856 5854 5852 5850 5848 5846 5844 5843 5842 5841 5840 5838 5837 5835 5834 5832 5830 5828
5737 5740 5741 5742 5742 5744 5750 5755 5757 5757 5759 5761 5763 5764 5767 5769 5772 5775 5779 5784 5786 5788 5793 5800 5803 5806 5810 5814 5817 5820 5823 5826 5829 5832 5835 5838 5840 5841 5843 5845 5847 5848 5851 5852 5853 5855 5855 5854 5854 5854 5854 5854 5854 5855 5855 5856 5856 5857 5857 5857 5858 5858 5859 5859 5858 5857 5856 5854 5853 5851 5850 5848 5846 5845 5844 5842 5840 5838 5837 5836 5834 5831 5829 5828 5826 5825 5823
5732 5734 5735 5735 5738 5743 5747 5749 5751 5751 5752 5755 5757 5758 5760 5763 5765 5769 5773 5777 5781 5784 5789 5794 5798 5801 5806 5809 5811 5815 5818 5821 5824 5827 5831 5834 5836 5837 5839 5841 5843 5845 5847 5849 5850 5851 5851 5851 5850 5850 5850 5851 5852 5852 5852 5853 5854 5854 5855 5855 5855 5855 5855 5855 5854 5853 5851 5850 5848 5846 5845 5843 5842 5841 5840 5838 5836 5835 5833 5831 5829 5827 5825 5823 5821 5820 5818
5726 5728 5729 5731 5734 5738 5740 5743 5744 5745 5746 5749 5750 5751 5754 5757 5760 5764 5768 5772 5776 5780 5783 5788 5793 5797 5800 5803 5807 5810 5813 5817 5820 5822 5826 5829 5831 5833 5835 5837 5839 5841 5843 5845 5847 5847 5847 5846 5846 5846 5847 5848 5850 5850 5850 5851 5851 5852 5852 5852 5852 5852 5852 5851 5850 5849 5847 5845 5843 5841 5840 5839 5838 5836 5835 5833 5831 5829 5828 5826 5825 5823 5821 5819 5817 5815 5813
5721 5723 5724 5727 5729 5732 5736 5737 5738 5740 5743 5745 5746 5747 5749 5752 5755 5759 5764 5768 5772 5776 5779 5783 5788 5791 5794 5798 5802 5806 5810 5813 5815 5818 5821 5825 5827 5830 5831 5833 5835 5837 5839 5841 5842 5843 5843 5843 5843 5844 5844 5846 5848 5848 5848 5848 5849 5849 5849 5849 5848 5848 5847 5847 5846 5844 5842 5840 5838 5837 5835 5833 5832 5831 5829 5827 5825 5823 5822 5821 5820 5818 5816 5814 5812 5811 5809
5716 5718 5719 5722 5725 5727 5730 5732 5734 5737 5739 5742 5744 5743 5743 5747 5752 5756 5760 5764 5768 5772 5775 5779 5783 5786 5790 5794 5798 5802 5806 5808 5811 5814 5817 5820 5823 5825 5827 5829 5830 5832 5835 5837 5838 5839 5840 5840 5841 5841 5842 5843 5845 5845 5844 5845 5845 5845 5845 5845 5844 5843 5843 5842 5840 5839 5837 5836 5834 5831 5830 5828 5826 5824 5822 5821 5819 5817 5816 5815 5814 5813 5811 5808 5807 5806 5804
5712 5714 5714 5717 5721 5723 5725 5727 5729 5732 5735 5739 5740 5738 5739 5744 5749 5752 5756 5759 5763 5767 5770 5774 5778 5781 5785 5790 5794 5798 5801 5804 5807 5810 5813 5816 5819 5821 5823 5825 5826 5828 5830 5832 5833 5835 5836 5837 5838 5838 5839 5840 5841 5840 5840 5840 5840 5840 5840 5840 5839 5838 5837 5836 5835 5833 5832 5831 5828 5826 5823 5821 5819 5817 5815 5814 5812 5810 5809 5808 5808 5807 5805 5803 5801 5800 5798
5708 5710 5710 5713 5717 5719 5722 5724 5726 5729 5732 5734 5734 5734 5739 5743 5745 5748 5752 5755 5758 5763 5766 5769 5773 5777 5781 5786 5790 5794 5796 5799 5803 5806 5809 5812 5814 5817 5819 5821 5823 5824 5826 5828 5829 5830 5832 5833 5834 5834 5835 5835 5836 5836 5836 5836 5836 5835 5835 5834 5833 5832 5831 5830 5829 5828 5827 5825 5822 5819 5817 5814 5812 5810 5808 5807 5805 5804 5803 5802 5801 5800 5799 5797 5796 5794 5792
5704 5705 5705 5708 5711 5714 5718 5722 5724 5726 5728 5729 5731 5733 5737 5740 5741 5744 5747 5750 5754 5759 5762 5765 5769 5773 5778 5782 5786 5789 5792 5795 5799 5801 5804 5808 5810 5812 5815 5817 5818 5820 5822 5824 5825 5826 5828 5829 5830 5830 5831 5831 5831 5831 5831 5831 5830 5830 5829 5828 5827 5826 5825 5824 5823 5822 5821 5819 5816 5813 5810 5808 5805 5803 5802 5801 5800 5798 5797 5796 5795 5794 5793 5792 5790 5789 5787
5699 5700 5701 5701 5703 5709 5715 5719 5720 5722 5723 5726 5730 5733 5735 5736 5738 5741 5743 5745 5750 5754 5758 5761 5765 5770 5774 5778 5781 5784 5788 5791 5795 5798 5801 5804 5806 5808 5810 5812 5813 5815 5817 5819 5821 5822 5824 5825 5825 5826 5826 5826 5826 5826 5825 5825 5825 5824 5823 5822 5821 5820 5819 5818 5817 5816 5815 5813 5810 5807 5804 5802 5799 5798 5797 5796 5794 5793 5792 5791 5790 5789 5788 5786 5785 5783 5781
5696 5696 5697 5698 5701 5707 5713 5714 5715 5718 5720 5724 5728 5731 5732 5733 5735 5737 5739 5741 5745 5750 5754 5758 5762 5766 5770 5773 5776 5780 5784 5787 5791 5794 5796 5799 5801 5803 5805 5807 5809 5811 5812 5814 5816 5818 5819 5819 5820 5820 5820 5820 5820 5820 5820 5820 5819 5818 5817 5815 5815 5814 5814 5813 5812 5810 5808 5806 5803 5801 5799 5796 5794 5793 5791 5790 5788 5787 5787 5786 5785 5784 5782 5781 5779 5778 5776
5692 5694 5695 5697 5700 5705 5708 5709 5711 5714 5717 5721 5724 5727 5728 5730 5731 5733 5735 5738 5741 5746 5750 5754 5759 5762 5766 5768 5772 5776 5780 5783 5786 5789 5792 5794 5797 5799 5801 5803 5804 5806 5808 5810 5811 5812 5813 5813 5814 5814 5815 5815 5815 5815 5814 5813 5813 5812 5811 5810 5810 5809 5808 5807 5806 5804 5801 5799 5797 5795 5793 5791 5789 5788 5786 5785 5784 5783 5782 5781 5780 5779 5777 5776 5774 5773 5772
5687 5689 5691 5693 5696 5700 5704 5705 5708 5711 5714 5718 5721 5723 5725 5726 5728 5730 5732 5735 5738 5742 5746 5751 5755 5759 5761 5765 5768 5772 5776 5779 5781 5784 5787 5790 5793 5795 5796 5798 5799 5801 5803 5804 5805 5806 5807 5808 5809 5809 5810 5809 5809 5809 5808 5808 5807 5807 5807 5806 5805 5804 5803 5802 5801 5798 5796 5794 5792 5790 5788 5787 5785 5784 5782 5781 5780 5779 5778 5776 5775 5774 5772 5771 5769 5768 5767
5683 5685 5687 5690 5693 5696 5699 5701 5704 5707 5710 5714 5717 5720 5722 5723 5725 5727 5730 5733 5736 5740 5744 5748 5752 5755 5758 5761 5764 5768 5771 5773 5776 5778 5781 5784 5787 5789 5791 5792 5793 5795 5796 5798 5799 5800 5801 5802 5803 5803 5804 5804 5803 5803 5803 5802 5802 5802 5802 5801 5800 5799 5798 5797 5796 5794 5792 5789 5787 5786 5784 5782 5781 5780 5779 5777 5776 5774 5773 5771 5770 5769 5767 5766 5764 5762 5761
5680 5682 5684 5687 5688 5691 5694 5698 5700 5702 5705 5709 5712 5715 5717 5719 5721 5723 5726 5729 5733 5737 5741 5744 5748 5751 5754 5757 5759 5762 5765 5768 5771 5773 5776 5779 5781 5783 5785 5786 5787 5788 5789 5791 5792 5793 5794 5795 5796 5797 5798 5798 5798 5798 5798 5797 5797 5797 5796 5795 5795 5794 5793 5792 5790 5789 5787 5785 5783 5781 5780 5778 5777 5776 5774 5773 5771 5769 5768 5766 5765 5763 5762 5761 5759 5757 5756
5677 5678 5681 5682 5683 5686 5690 5693 5695 5697 5701 5704 5707 5710 5712 5714 5715 5717 5721 5725 5730 5733 5737 5740 5743 5747 5749 5752 5755 5757 5760 5762 5765 5768 5770 5773 5775 5777 5779 5780 5781 5782 5783 5784 5786 5787 5788 5790 5791 5792 5793 5793 5793 5793 5793 5792 5792 5792 5791 5790 5789 5788 5787 5786 5784 5783 5781 5780 5778 5777 5775 5774 5772 5771 5769 5768 5766 5764 5763 5762 5760 5759 5757 5755 5754 5752 5751
5673 5674 5676 5678 5680 5683 5685 5688 5690 5693 5696 5699 5703 5705 5708 5710 5711 5712 5714 5718 5724 5729 5733 5736 5739 5742 5745 5748 5750 5753 5755 5758 5760 5762 5765 5767 5769 5771 5773 5774 5774 5775 5777 5778 5780 5781 5783 5784 5785 5787 5787 5788 5788 5788 5787 5786 5786 5785 5785 5784 5783 5782 5781 5780 5778 5777 5776 5774 5773 5771 5770 5769 5767 5766 5765 5763 5761 5759 5758 5757 5756 5754 5753 5751 5749 5748 5746
5670 5670 5672 5674 5677 5680 5682 5684 5687 5689 5691 5695 5698 5701 5704 5707 5709 5710 5711 5713 5717 5722 5727 5730 5733 5737 5740 5742 5745 5748 5750 5752 5755 5757 5760 5762 5764 5765 5767 5768 5769 5770 5771 5773 5774 5775 5777 5779 5780 5781 5782 5782 5781 5781 5780 5779 5779 5779 5779 5778 5777 5776 5775 5774 5773 5771 5770 5769 5767 5766 5765 5763 5762 5761 5759 5757 5756 5754 5753 5752 5751 5750 5748 5746 5745 5743 5740
5666 5667 5668 5671 5674 5677 5679 5681 5683 5685 5686 5689 5693 5696 5699 5702 5704 5708 5710 5712 5714 5717 5721 5725 5728 5731 5734 5737 5740 5742 5745 5748 5750 5753 5754 5756 5758 5760 5762 5764 5764 5765 5766 5768 5769 5770 5772 5773 5774 5775 5775 5775 5774 5774 5773 5773 5772 5772 5772 5771 5771 5770 5769 5768 5767 5766 5764 5763 5761 5760 5759 5758 5757 5755 5754 5752 5751 5750 5749 5747 5746 5744 5742 5741 5738 5736 5734
5663 5664 5666 5668 5671 5674 5676 5677 5678 5680 5682 5686 5690 5693 5696 5698 5701 5704 5707 5710 5712 5714 5717 5720 5724 5726 5729 5732 5735 5737 5740 5743 5745 5747 5750 5752 5753 5755 5756 5758 5759 5760 5761 5762 5763 5764 5766 5767 5768 5767 5767 5767 5767 5766 5766 5766 5765 5765 5765 5765 5764 5764 5764 5763 5761 5760 5759 5757 5756 5755 5754 5752 5751 5750 5749 5748 5746 5745 5744 5742 5740 5739 5737 5735 5732 5729 5728
5660 5662 5664 5665 5668 5671 5673 5674 5676 5677 5679 5682 5685 5688 5690 5694 5698 5702 5705 5707 5709 5710 5713 5716 5719 5722 5725 5728 5730 5733 5735 5738 5740 5743 5745 5747 5749 5750 5751 5753 5755 5756 5756 5756 5757 5758 5759 5759 5759 5759 5759 5759 5759 5759 5759 5759 5758 5758 5758 5758 5758 5758 5757 5756 5755 5754 5753 5751 5750 5750 5749 5747 5746 5745 5744 5743 5741 5739 5737 5736 5735 5733 5731 5728 5726 5724 5722
5658 5659 5660 5662 5665 5668 5671 5674 5675 5676 5678 5680 5681 5683 5686 5690 5694 5698 5701 5703 5705 5707 5710 5713 5715 5717 5721 5723 5726 5729 5731 5733 5736 5738 5740 5742 5743 5745 5746 5748 5749 5750 5750 5751 5751 5751 5752 5752 5752 5752 5752 5752 5752 5752 5752 5752 5752 5752 5751 5751 5751 5751 5750 5749 5748 5747 5746 5746 5745 5744 5743 5742 5741 5739 5738 5737 5735 5733 5732 5730 5728 5727 5724 5722 5721 5719 5718
5655 5657 5659 5661 5663 5666 5669 5671 5673 5675 5677 5679 5680 5682 5685 5687 5690 5693 5696 5698 5701 5703 5706 5708 5710 5713 5715 5718 5720 5723 5726 5728 5730 5732 5734 5736 5738 5740 5741 5742 5743 5744 5745 5745 5745 5745 5745 5745 5745 5746 5746 5746 5745 5745 5745 5745 5745 5745 5745 5745 5745 5745 5744 5743 5742 5741 5741 5740 5739 5739 5738 5736 5735 5733 5732 5730 5729 5728 5726 5725 5723 5721 5719 5717 5716 5714 5713
5653 5656 5657 5659 5661 5663 5666 5668 5670 5672 5674 5677 5679 5681 5682 5684 5686 5688 5691 5694 5697 5699 5702 5703 5705 5708 5710 5713 5716 5718 5720 5722 5724 5727 5729 5731 5733 5734 5736 5737 5738 5738 5739 5739 5739 5739 5739 5739 5740 5740 5740 5739 5739 5739 5738 5738 5739 5739 5739 5739 5739 5738 5738 5737 5736 5735 5735 5735 5734 5732 5731 5730 5728 5727 5726 5725 5724 5722 5721 5719 5717 5715 5713 5711 5710 5709 5708
5651 5653 5655 5657 5659 5661 5663 5665 5667 5669 5671 5674 5676 5678 5680 5682 5684 5686 5688 5691 5694 5695 5697 5700 5702 5704 5706 5709 5712 5714 5715 5717 5719 5722 5723 5725 5727 5729 5731 5732 5732 5733 5733 5733 5733 5733 5733 5733 5734 5733 5733 5733 5732 5732 5732 5732 5732 5732 5732 5732 5733 5732 5732 5731 5730 5730 5730 5729 5728 5726 5725 5724 5723 5722 5721 5720 5718 5716 5714 5712 5710 5708 5707 5705 5704 5704 5703
5648 5651 5653 5655 5656 5658 5659 5661 5663 5665 5667 5669 5672 5674 5676 5679 5681 5683 5685 5688 5690 5691 5694 5697 5699 5701 5703 5706 5708 5710 5711 5713 5715 5717 5719 5721 5723 5724 5725 5726 5727 5727 5727 5727 5726 5726 5726 5727 5727 5727 5726 5726 5726 5725 5725 5726 5726 5726 5726 5727 5727 5726 5726 5725 5725 5725 5724 5723 5721 5720 5719 5718 5717 5716 5715 5713 5711 5709 5707 5705 5704 5702 5701 5700 5699 5699 5698
5646 5648 5650 5652 5653 5654 5656 5658 5660 5662 5664 5666 5668 5670 5672 5674 5675 5677 5680 5683 5685 5688 5691 5694 5696 5698 5700 5703 5705 5706 5708 5709 5711 5713 5715 5716 5718 5719 5719 5720 5720 5720 5720 5720 5719 5719 5720 5720 5720 5720 5720 5720 5720 5720 5720 5720 5720 5720 5720 5720 5721 5720 5719 5719 5719 5718 5717 5716 5715 5714 5713 5712 5710 5709 5708 5706 5704 5702 5701 5699 5698 5696 5695 5694 5694 5693 5692
5644 5646 5647 5648 5650 5652 5654 5655 5657 5659 5661 5662 5664 5666 5668 5669 5671 5673 5676 5679 5682 5685 5688 5690 5693 5695 5698 5699 5701 5703 5704 5706 5707 5708 5709 5711 5712 5712 5713 5713 5713 5713 5713 5713 5713 5713 5713 5713 5713 5714 5714 5714 5714 5714 5714 5714 5714 5715 5714 5714 5714 5714 5713 5713 5712 5711 5711 5710 5709 5708 5707 5706 5704 5702 5701 5699 5698 5696 5695 5693 5692 5691 5690 5689 5689 5688 5686
5642 5643 5643 5644 5646 5648 5650 5652 5653 5654 5656 5658 5660 5662 5665 5667 5669 5671 5674 5677 5680 5682 5685 5688 5690 5692 5694 5695 5697 5698 5699 5700 5701 5702 5703 5704 5705 5706 5706 5707 5707 5707 5707 5707 5707 5707 5708 5708 5708 5708 5708 5709 5709 5709 5709 5709 5709 5709 5708 5708 5708 5708 5707 5706 5706 5705 5704 5703 5702 5701 5700 5699 5698 5696 5695 5693 5692 5690 5689 5688 5687 5687 5686 5685 5684 5682 5680
5640 5641 5641 5642 5643 5645 5647 5649 5651 5652 5654 5656 5657 5659 5662 5665 5667 5670 5672 5675 5677 5680 5683 5684 5686 5688 5690 5691 5692 5693 5694 5695 5696 5697 5697 5698 5699 5700 5700 5701 5701 5701 5701 5701 5701 5702 5702 5702 5702 5702 5703 5703 5703 5703 5703 5703 5703 5702 5702 5702 5702 5701 5701 5700 5699 5698 5698 5697 5696 5695 5695 5693 5692 5690 5688 5687 5686 5685 5684 5683 5682 5682 5681 5679 5678 5676 5675
5638 5639 5640 5641 5642 5643 5645 5647 5649 5651 5653 5655 5656 5659 5661 5664 5666 5668 5671 5673 5675 5678 5679 5681 5683 5684 5685 5687 5688 5688 5689 5690 5691 5692 5692 5693 5694 5694 5695 5695 5696 5696 5696 5696 5696 5696 5697 5697 5697 5697 5697 5697 5697 5697 5697 5696 5695 5695 5695 5695 5695 5695 5694 5694 5693 5692 5691 5690 5690 5689 5688 5687 5685 5683 5683 5682 5681 5680 5679 5678 5677 5676 5674 5673 5672 5671 5670
5637 5639 5640 5641 5643 5644 5645 5647 5649 5651 5653 5655 5656 5658 5661 5663 5665 5667 5669 5671 5673 5675 5676 5678 5679 5680 5682 5683 5684 5684 5685 5686 5686 5687 5688 5688 5689 5689 5689 5690 5690 5690 5691 5691 5691 5692 5692 5692 5691 5691 5691 5691 5691 5691 5690 5689 5688 5689 5689 5689 5688 5688 5688 5687 5687 5686 5685 5684 5683 5682 5681 5680 5679 5678 5677 5676 5676 5675 5674 5673 5671 5670 5669 5668 5667 5666 5665
5637 5638 5640 5641 5643 5645 5646 5648 5649 5651 5653 5654 5656 5658 5660 5661 5663 5665 5667 5668 5670 5672 5673 5674 5675 5677 5678 5678 5679 5679 5680 5681 5681 5682 5682 5683 5684 5684 5684 5684 5685 5685 5685 5686 5686 5686 5686 5686 5686 5686 5685 5685 5685 5685 5684 5684 5683 5683 5682 5682 5682 5682 5682 5681 5681 5680 5679 5678 5677 5676 5675 5675 5674 5673 5672 5671 5671 5670 5669 5667 5666 5665 5664 5663 5663 5662 5661
5636 5638 5639 5641 5643 5645 5646 5648 5649 5651 5652 5654 5655 5657 5658 5660 5661 5663 5664 5666 5667 5668 5669 5670 5671 5672 5672 5673 5674 5674 5675 5675 5676 5676 5677 5678 5678 5679 5679 5679 5679 5679 5680 5680 5680 5680 5680 5680 5680 5680 5680 5679 5679 5679 5678 5678 5677 5677 5676 5676 5676 5676 5676 5675 5674 5673 5673 5672 5671 5671 5670 5670 5669 5668 5667 5666 5666 5665 5664 5663 5662 5661 5660 5659 5659 5658 5657
5635 5637 5638 5640 5642 5644 5645 5647 5648 5650 5651 5653 5654 5655 5657 5658 5659 5661 5662 5663 5664 5664 5665 5665 5666 5667 5668 5668 5669 5669 5670 5670 5671 5672 5672 5673 5673 5674 5674 5674 5674 5674 5675 5675 5675 5675 5675 5675 5674 5674 5674 5674 5673 5673 5672 5672 5672 5671 5671 5671 5671 5670 5670 5670 5669 5668 5667 5667 5666 5665 5665 5665 5664 5663 5663 5662 5661 5660 5659 5658 5658 5657 5656 5655 5655 5654 5654
5635 5636 5638 5639 5641 5642 5644 5645 5647 5648 5650 5651 5652 5654 5655 5656 5657 5658 5659 5660 5660 5661 5661 5662 5662 5663 5663 5664 5664 5665 5665 5666 5666 5667 5667 5668 5668 5669 5669 5669 5669 5669 5669 5669 5669 5669 5669 5669 5669 5669 5669 5668 5668 5667 5667 5667 5667 5667 5666 5666 5666 5665 5665 5665 5664 5663 5662 5662 5661 5660 5660 5660 5659 5659 5658 5657 5656 5655 5655 5654 5653 5652 5652 5651 5651 5651 5650
5634 5635 5637 5638 5640 5641 5642 5644 5645 5646 5648 5649 5650 5651 5652 5653 5654 5655 5656 5656 5657 5658 5658 5659 5659 5659 5660 5660 5660 5660 5661 5661 5662 5662 5662 5662 5663 5663 5663 5663 5663 5663 5663 5663 5663 5663 5663 5664 5664 5663 5663 5663 5663 5663 5662 5662 5662 5662 5662 5661 5661 5661 5660 5660 5659 5658 5657 5656 5656 5655 5655 5655 5654 5654 5653 5652 5651 5650 5650 5649 5648 5648 5648 5647 5647 5647 5647
5633 5634 5635 5637 5638 5639 5641 5642 5643 5644 5645 5646 5647 5648 5649 5650 5651 5651 5652 5653 5654 5655 5655 5655 5655 5655 5655 5655 5655 5656 5656 5656 5656 5657 5657 5657 5658 5658 5658 5658 5658 5658 5658 5657 5657 5657 5658 5658 5658 5658 5658 5658 5658 5658 5658 5658 5658 5658 5657 5657 5656 5656 5655 5654 5654 5653 5652 5651 5650 5650 5650 5649 5649 5648 5647 5647 5646 5645 5645 5644 5644 5644 5644 5644 5644 5644 5644
5631 5632 5634 5635 5636 5637 5638 5639 5640 5641 5642 5643 5644 5645 5646 5647 5647 5648 5649 5650 5650 5651 5651 5651 5651 5651 5651 5651 5651 5651 5651 5651 5651 5652 5652 5653 5653 5653 5653 5653 5653 5653 5653 5652 5652 5653 5653 5653 5653 5654 5654 5654 5654 5654 5654 5654 5654 5653 5653 5652 5651 5650 5650 5649 5648 5647 5647 5646 5646 5645 5645 5644 5643 5643 5642 5642 5641 5641 5640 5640 5640 5640 5640 5640 5640 5640 5640
5630 5631 5632 5633 5634 5635 5636 5637 5638 5639 5640 5640 5641 5642 5643 5644 5644 5645 5646 5646 5647 5647 5647 5647 5647 5647 5646 5646 5646 5646 5646 5647 5647 5647 5648 5648 5648 5648 5649 5649 5649 5649 5649 5648 5648 5649 5649 5649 5649 5649 5649 5649 5649 5649 5649 5649 5648 5648 5647 5647 5646 5645 5645 5644 5643 5643 5642 5642 5641 5640 5640 5639 5639 5638 5638 5638 5637 5637 5637 5636 5636 5636 5636 5636 5637 5637 5637
5629 5630 5630 5631 5632 5633 5634 5635 5636 5637 5637 5638 5639 5639 5640 5641 5641 5642 5642 5643 5643 5643 5643 5643 5643 5643 5642 5642 5642 5642 5642 5642 5643 5643 5643 5644 5644 5644 5644 5644 5644 5644 5644 5644 5644 5644 5645 5645 5645 5645 5645 5644 5644 5644 5644 5643 5643 5643 5642 5641 5641 5640 5640 5639 5639 5638 5637 5637 5636 5635 5635 5635 5634 5634 5634 5634 5634 5633 5633 5633 5633 5633 5633 5633 5633 5633 5633
5628 5628 5629 5630 5630 5631 5632 5633 5634 5634 5635 5635 5636 5636 5637 5637 5638 5638 5639 5639 5639 5639 5639 5639 5639 5639 5639 5639 5639 5639 5639 5639 5639 5639 5639 5639 5640 5640 5640 5640 5640 5640 5640 5640 5640 5640 5640 5640 5640 5639 5639 5639 5639 5638 5638 5638 5638 5637 5637 5636 5636 5635 5635 5634 5634 5633 5633 5632 5632 5631 5631 5631 5631 5631 5630 5630 5630 5630 5630 5629 5629 5629 5629 5629 5629 5629 5629
5626 5627 5628 5629 5629 5630 5631 5632 5632 5632 5632 5633 5633 5634 5634 5634 5635 5635 5635 5635 5635 5635 5635 5635 5635 5635 5635 5635 5635 5635 5635 5635 5635 5635 5635 5635 5636 5636 5636 5636 5636 5636 5635 5635 5635 5635 5635 5635 5635 5634 5634 5634 5633 5633 5633 5633 5632 5632 5632 5631 5631 5630 5630 5629 5629 5629 5628 5628 5628 5628 5627 5627 5627 5627 5627 5626 5626 5626 5626 5626 5625 5625 5625 5625 5625 5625 5625
5626 5626 5627 5627 5628 5629 5629 5630 5630 5630 5630 5631 5631 5631 5631 5631 5631 5631 5631 5631 5631 5631 5631 5631 5631 5631 5632 5632 5632 5631 5631 5631 5631 5631 5631 5631 5631 5631 5631 5631 5631 5631 5630 5630 5630 5629 5629 5629 5629 5629 5629 5629 5628 5628 5628 5627 5627 5627 5627 5626 5626 5626 5625 5625 5625 5624 5624 5624 5624 5624 5624 5623 5623 5623 5623 5622 5622 5622 5622 5621 5621 5621 5621 5620 5620 5620 5620
5625 5625 5625 5626 5626 5627 5627 5627 5627 5627 5628 5628 5627 5627 5627 5627 5627 5627 5626 5626 5626 5626 5627 5627 5627 5627 5627 5627 5627 5627 5627 5627 5627 5627 5627 5627 5627 5627 5627 5627 5626 5626 5625 5625 5624 5624 5624 5624 5624 5623 5623 5623 5623 5623 5623 5622 5622 5622 5622 5622 5621 5621 5621 5621 5620 5620 5620 5620 5620 5620 5619 5619 5619 5619 5618 5618 5618 5617 5617 5617 5616 5616 5616 5616 5615 5615 5615
5623 5624 5624 5624 5624 5624 5624 5624 5624 5624 5624 5624 5623 5623 5623 5623 5623 5622 5622 5622 5622 5622 5623 5623 5623 5623 5623 5623 5623 5623 5623 5623 5623 5623 5623 5623 5623 5622 5622 5621 5621 5620 5620 5619 5619 5619 5619 5618 5618 5618 5618 5618 5617 5617 5617 5618 5617 5617 5617 5617 5617 5617 5616 5616 5616 5616 5616 5616 5615 5615 5615 5615 5614 5614 5614 5613 5613 5613 5612 5612 5611 5611 5611 5611 5610 5610 5609
5621 5621 5622 5621 5620 5620 5620 5621 5621 5621 5621 5620 5619 5619 5619 5619 5619 5619 5619 5619 5619 5619 5619 5619 5619 5619 5619 5619 5619 5619 5619 5619 5618 5618 5618 5618 5617 5617 5616 5616 5615 5615 5614 5614 5613 5613 5613 5613 5613 5613 5613 5612 5612 5612 5612 5612 5612 5612 5612 5612 5612 5611 5611 5611 5611 5611 5611 5611 5610 5610 5610 5609 5609 5609 5608 5608 5608 5607 5607 5607 5606 5606 5606 5605 5605 5605 5604